Location: Unspecified
(35.6961°N, 0.0000°E)
Time: 04:52:56
(UTC+00:00)

S-56A Canister/Altair - Pass Details

Date: 28 May 2019
Orbit: 633 x 2499 km, 38.9° (Epoch: 18 June)

Event Time Altitude Azimuth Distance (km) Brightness Sun altitude
Rises 03:40:34 0° 286° (WNW) 3,715 10.7 -12.2°
Reaches altitude 10° 03:42:48 10° 286° (WNW) 2,951 10.2 -11.9°
Maximum altitude 03:50:13 86° 15° (NNE) 1,466 8.9 -10.7°
Drops below altitude 10° 04:01:46 10° 107° (ESE) 4,443 12.0 -8.7°
Sets 04:05:54 0° 107° (ESE) 5,685 12.6 -8.1°
